1494824400.36,6251,15.81,74352.8,-1.93,-31.91,-33.09,0,*68
1494824401.64,6252,15.81,74354.3,-1.91,-31.91,-33.09,0,*69
1494824402.89,6253,15.81,74354.0,-1.93,-31.85,-33.09,0,*6F
1494824404.14,6254,15.81,74352.5,-1.93,-31.91,-33.09,0,*6D
1494824405.38,6255,15.81,74356.0,-1.93,-31.91,-33.09,0,*6C
1494824406.63,6256,15.81,74356.8,-1.93,-31.91,-33.09,0,*6F
1494824407.91,6257,15.81,74356.0,-1.91,-31.91,-33.09,0,*6C
1494824409.13,6258,15.81,74358.3,-1.93,-31.91,-33.15,0,*6C
1494824410.38,6259,15.81,74356.8,-1.91,-31.91,-33.15,0,*6F
1494824411.63,6260,15.81,74358.8,-1.93,-31.85,-32.97,0,*69
1494824412.88,6261,15.81,74358.3,-1.93,-31.85,-32.97,0,*68
1494824414.13,6262,15.81,74356.0,-1.93,-31.91,-33.09,0,*68
1494824415.35,6263,15.81,74358.8,-1.93,-31.91,-33.15,0,*64
1494824416.58,6264,15.81,74358.3,-1.93,-31.91,-33.15,0,*63
1494824417.85,6265,15.81,74360.3,-1.91,-31.91,-33.09,0,*6D
1494824419.08,6266,15.81,74356.5,-1.93,-32.01,-32.97,0,*60
1494824420.33,6267,15.81,74358.8,-1.93,-31.91,-33.09,0,*6D
1494824421.58,6268,15.81,74356.0,-1.93,-31.91,-33.09,0,*62
1494824422.82,6269,15.81,74356.5,-1.93,-31.91,-33.09,0,*63
1494824424.05,6270,15.81,74358.5,-1.93,-31.91,-33.15,0,*66
1494824425.29,6271,15.81,74358.0,-1.93,-31.91,-32.97,0,*6C
1494824426.52,6272,15.81,74356.0,-1.93,-31.91,-33.15,0,*64
1494824427.76,6273,15.81,74354.5,-1.93,-31.91,-32.97,0,*6E
1494824428.98,6274,15.81,74354.8,-1.93,-31.91,-33.15,0,*62
1494824430.24,6275,15.81,74352.5,-1.95,-31.95,-33.21,0,*66
1494824431.49,6276,15.81,74356.0,-1.95,-31.95,-33.15,0,*62
1494824432.72,6277,15.81,74356.0,-1.93,-32.01,-33.09,0,*66
1494824433.97,6278,15.81,74354.3,-1.95,-31.95,-33.21,0,*6B
1494824435.23,6279,15.81,74354.8,-1.95,-32.07,-33.15,0,*65
1494824436.48,6280,15.81,74358.3,-1.95,-32.07,-33.15,0,*63
1494824437.7,6281,15.81,74356.3,-1.97,-32.07,-33.21,0,*67
1494824438.96,6282,15.81,74356.8,-1.95,-32.07,-33.15,0,*61
1494824440.18,6283,15.81,74356.8,-1.97,-32.07,-33.21,0,*65
1494824441.43,6284,15.81,74358.8,-1.97,-32.07,-33.31,0,*63
1494824442.66,6285,15.81,74358.5,-1.97,-31.95,-33.15,0,*6C
1494824443.88,6286,15.81,74358.5,-1.97,-31.95,-33.21,0,*68
1494824445.13,6287,15.81,74356.8,-1.95,-31.95,-33.15,0,*6C
1494824446.39,6288,15.81,74356.3,-1.95,-31.95,-33.03,0,*64
1494824447.64,6289,15.81,74352.0,-1.95,-31.95,-33.03,0,*65
1494824448.86,6290,15.81,74352.5,-1.97,-31.95,-33.15,0,*68
1494824450.09,6291,15.81,74352.8,-1.97,-32.07,-33.15,0,*61
1494824451.34,6292,15.81,74364.3,-1.95,-32.07,-33.15,0,*60
1494824452.59,6293,15.81,74358.3,-1.95,-31.95,-33.03,0,*6E
1494824453.85,6294,15.81,74352.3,-1.95,-31.95,-33.15,0,*6E
1494824455.1,6295,15.81,74348.3,-1.95,-31.95,-33.03,0,*68
1494824456.38,6296,15.81,74352.5,-1.95,-32.07,-32.97,0,*6F
1494824457.6,6297,15.81,74354.3,-1.97,-31.95,-33.03,0,*68
1494824458.83,6298,15.81,74350.3,-1.97,-32.07,-33.15,0,*68
1494824460.08,6299,15.81,74348.0,-1.95,-31.95,-33.21,0,*64
1494824461.3,6300,15.81,74348.5,-1.97,-32.07,-33.15,0,*68
1494824462.53,6301,15.81,74356.8,-1.97,-32.07,-33.15,0,*69
1494824463.75,6302,15.81,74354.0,-1.97,-31.95,-33.15,0,*62
1494824464.97,6303,15.81,74348.5,-1.97,-31.95,-33.03,0,*64
1494824466.22,6304,15.81,74348.3,-1.97,-31.95,-32.97,0,*6F
1494824467.45,6305,15.81,74340.8,-1.97,-31.95,-33.03,0,*62
1494824468.7,6306,15.81,74336.8,-1.95,-31.95,-33.03,0,*63
1494824469.93,6307,15.81,74350.8,-1.97,-32.07,-33.03,0,*68
1494824471.15,6308,15.81,74352.5,-1.97,-32.07,-33.15,0,*60
1494824472.4,6309,15.81,74352.8,-1.97,-31.95,-32.97,0,*62
1494824473.62,6310,15.81,74350.5,-1.97,-32.07,-33.15,0,*69
1494824474.84,6311,15.81,74350.3,-1.97,-32.07,-33.03,0,*6F
1494824476.07,6312,15.81,74348.8,-1.97,-31.95,-33.03,0,*64
1494824477.29,6313,15.81,74344.5,-1.97,-31.95,-33.03,0,*65
1494824478.55,6314,15.81,74348.3,-1.95,-32.07,-33.03,0,*68
1494824479.79,6315,15.81,74360.8,-1.97,-31.95,-32.97,0,*6F
1494824481.05,6316,15.81,74366.5,-1.99,-32.01,-33.09,0,*6A
1494824482.27,6317,15.81,74354.5,-1.97,-31.95,-33.03,0,*61
1494824483.52,6318,15.81,74350.5,-1.97,-31.95,-32.97,0,*62
1494824484.77,6319,15.81,74354.0,-1.97,-31.95,-32.97,0,*63
1494824486.01,6320,15.81,74348.8,-1.97,-31.95,-32.97,0,*69
1494824487.24,6321,15.81,74350.3,-1.97,-32.07,-33.03,0,*6C
1494824488.46,6322,15.81,74354.0,-1.97,-31.95,-33.03,0,*67
1494824489.72,6323,15.81,74354.0,-1.95,-32.07,-33.03,0,*6C
1494824490.94,6324,15.81,74348.5,-1.97,-31.95,-33.03,0,*61
1494824492.22,6325,15.75,74350.3,-1.95,-31.95,-32.97,0,*6E
1494824493.47,6326,15.75,74356.0,-1.97,-31.95,-32.97,0,*6F
1494824494.71,6327,15.81,74358.8,-1.97,-31.95,-32.97,0,*6E
1494824495.96,6328,15.81,74358.3,-1.95,-31.95,-33.03,0,*6F
1494824497.21,6329,15.81,74358.8,-1.97,-31.95,-32.97,0,*60
1494824498.49,6330,15.75,74356.0,-1.95,-31.91,-32.85,0,*6D
1494824499.76,6331,15.81,74356.0,-1.95,-31.91,-32.97,0,*6F
1494824501.01,6332,15.81,74352.8,-1.97,-31.91,-32.97,0,*6E
1494824502.25,6333,15.75,74350.5,-1.97,-31.91,-32.97,0,*6F
1494824503.5,6334,15.81,74352.0,-1.97,-31.95,-32.85,0,*6F
1494824504.76,6335,15.75,74352.0,-1.97,-31.95,-32.85,0,*6E
1494824506.03,6336,15.81,74356.5,-1.95,-31.95,-32.97,0,*6C
1494824507.29,6337,15.81,74350.3,-1.97,-31.95,-32.85,0,*6C
1494824508.53,6338,15.81,74352.5,-1.97,-31.95,-32.97,0,*60
1494824509.81,6339,15.75,74350.3,-1.95,-31.95,-32.97,0,*63
1494824511.05,6340,15.81,74354.8,-1.97,-31.95,-32.97,0,*6F
1494824512.3,6341,15.75,74352.5,-1.97,-31.95,-32.97,0,*6E
1494824513.58,6342,15.75,74352.3,-1.95,-32.07,-32.97,0,*67
1494824514.83,6343,15.81,74354.5,-1.99,-32.01,-33.09,0,*6A
1494824516.09,6344,15.81,74358.5,-1.99,-32.01,-33.09,0,*6D
1494824517.34,6345,15.81,74352.0,-1.97,-31.95,-32.85,0,*69
1494824518.57,6346,15.81,74352.0,-1.97,-32.07,-33.03,0,*6D
1494824519.81,6347,15.75,74350.5,-1.97,-31.95,-32.97,0,*68
1494824521.04,6348,15.75,74350.0,-1.97,-32.07,-33.03,0,*63
1494824522.26,6349,15.81,74352.8,-1.97,-32.07,-33.03,0,*62
1494824523.51,6350,15.81,74354.8,-1.97,-31.95,-32.97,0,*6E
1494824524.73,6351,15.75,74352.5,-1.97,-32.07,-33.03,0,*6B
1494824525.93,6352,15.75,74354.3,-1.97,-32.13,-33.03,0,*6D
1494824527.12,6353,15.75,74352.3,-1.97,-32.13,-33.15,0,*6B
1494824528.32,6354,15.81,74360.8,-1.97,-32.13,-33.15,0,*6C
1494824529.55,6355,15.81,74362.5,-1.99,-32.01,-33.03,0,*67
1494824530.77,6356,15.75,74360.3,-1.99,-32.13,-33.03,0,*67
1494824532.0,6357,15.75,74356.0,-1.99,-32.01,-33.03,0,*65
1494824533.23,6358,15.75,74356.0,-1.99,-32.13,-33.03,0,*69
1494824534.46,6359,15.81,74356.3,-1.99,-32.01,-33.03,0,*6B
1494824535.68,6360,15.75,74356.8,-1.99,-32.13,-33.03,0,*62
1494824536.91,6361,15.75,74356.0,-1.99,-32.13,-33.03,0,*63
1494824538.13,6362,15.75,74358.3,-1.99,-32.13,-33.03,0,*60
1494824539.36,6363,15.75,74354.3,-1.99,-32.01,-33.03,0,*62
1494824540.59,6364,15.75,74362.8,-1.99,-32.01,-33.03,0,*65
1494824541.8,6365,15.81,74366.8,-2.01,-32.01,-33.03,0,*66
1494824543.05,6366,15.75,74358.3,-1.99,-32.13,-33.09,0,*6E
1494824544.27,6367,15.75,74362.5,-1.99,-32.13,-33.03,0,*65
1494824545.52,6368,15.75,74360.8,-1.99,-32.13,-33.09,0,*60
1494824546.75,6369,15.81,74364.3,-1.99,-32.13,-33.03,0,*6B
1494824547.98,6370,15.81,74366.8,-1.99,-32.01,-33.03,0,*60
1494824549.21,6371,15.75,74358.8,-1.99,-32.01,-33.03,0,*61
1494824550.46,6372,15.81,74364.0,-1.99,-32.13,-33.09,0,*6B
1494824551.69,6373,15.75,74362.5,-1.99,-32.01,-32.91,0,*69
1494824552.92,6374,15.75,74356.0,-1.99,-32.13,-33.03,0,*67
1494824554.15,6375,15.75,74354.0,-1.99,-32.01,-32.91,0,*6F
1494824555.38,6376,15.75,74352.0,-1.99,-32.01,-33.03,0,*66
1494824556.6,6377,15.75,74352.5,-1.99,-32.13,-33.03,0,*64
1494824557.83,6378,15.81,74354.0,-1.99,-32.01,-33.03,0,*68
1494824559.06,6379,15.75,74348.5,-1.99,-32.13,-33.03,0,*6A
1494824560.28,6380,15.75,74352.8,-1.99,-32.13,-33.03,0,*6C
1494824561.52,6381,15.81,74354.3,-1.99,-32.01,-33.03,0,*6E
1494824562.77,6382,15.75,74352.8,-1.99,-32.19,-32.91,0,*6E
1494824563.99,6383,15.81,74354.8,-1.99,-32.13,-32.91,0,*65
1494824565.25,6384,15.81,74354.5,-1.99,-32.19,-33.21,0,*62
1494824566.5,6385,15.75,74354.5,-1.99,-32.19,-33.03,0,*63
1494824567.75,6386,15.75,74354.3,-1.99,-32.19,-33.03,0,*60
1494824569.03,6387,15.75,74354.5,-1.99,-32.19,-33.09,0,*6B
1494824570.28,6388,15.75,74356.3,-1.99,-32.19,-33.03,0,*6E
1494824571.53,6389,15.75,74356.8,-1.95,-32.07,-33.03,0,*6C
1494824572.73,6390,15.75,74358.8,-2.01,-32.13,-33.03,0,*6F
1494824574.0,6391,15.75,74358.5,-1.99,-32.29,-33.09,0,*6F
1494824575.25,6392,15.75,74354.3,-1.99,-32.19,-33.03,0,*65
1494824576.48,6393,15.75,74352.0,-1.99,-32.13,-33.03,0,*6E
1494824577.71,6394,15.75,74352.8,-1.99,-32.01,-32.91,0,*60
1494824578.96,6395,15.75,74354.0,-1.99,-32.19,-33.03,0,*62
1494824580.16,6396,15.75,74354.3,-2.01,-32.13,-33.03,0,*69
1494824581.38,6397,15.75,74352.0,-1.99,-32.13,-33.03,0,*6A
1494824582.63,6398,15.81,74356.3,-2.01,-32.19,-33.09,0,*67
1494824583.88,6399,15.75,74354.8,-1.99,-32.13,-33.09,0,*6E
1494824585.13,6400,15.75,74352.3,-2.01,-32.19,-33.09,0,*61
1494824586.35,6401,15.75,74354.3,-1.97,-32.13,-33.09,0,*66
1494824587.57,6402,15.75,74352.5,-1.97,-32.13,-32.97,0,*63
1494824588.79,6403,15.75,74354.5,-2.01,-32.29,-33.03,0,*6B
1494824590.04,6404,15.75,74352.8,-2.01,-32.19,-33.09,0,*65
1494824591.32,6405,15.75,74352.5,-1.99,-32.19,-33.09,0,*66
1494824592.59,6406,15.75,74354.0,-1.99,-32.19,-33.09,0,*65
1494824593.84,6407,15.75,74354.0,-1.99,-32.19,-33.03,0,*6E
1494824595.12,6408,15.75,74354.0,-1.99,-32.19,-33.09,0,*6B
1494824596.37,6409,15.75,74352.5,-1.99,-32.19,-33.03,0,*60
1494824597.62,6410,15.75,74350.0,-2.01,-32.19,-33.09,0,*60
1494824598.87,6411,15.75,74354.5,-1.99,-32.29,-33.03,0,*6A
1494824600.11,6412,15.75,74354.5,-1.99,-32.29,-33.21,0,*69
1494824601.36,6413,15.75,74356.0,-2.01,-32.19,-33.09,0,*63
1494824602.63,6414,15.75,74358.3,-1.99,-32.29,-33.09,0,*65
1494824603.88,6415,15.75,74358.5,-1.99,-32.19,-33.21,0,*6D
1494824605.13,6416,15.75,74358.5,-1.99,-32.29,-33.21,0,*6D
1494824606.37,6417,15.75,74362.3,-1.99,-32.29,-33.21,0,*6C
1494824607.62,6418,15.75,74366.0,-1.99,-32.29,-33.03,0,*63
1494824608.84,6419,15.75,74362.5,-2.01,-32.19,-33.03,0,*63
1494824610.09,6420,15.75,74366.3,-1.99,-32.19,-33.03,0,*6B
1494824611.35,6421,15.75,74360.0,-1.99,-32.19,-33.03,0,*6A
1494824612.59,6422,15.75,74354.5,-1.99,-32.29,-33.03,0,*6A
1494824613.81,6423,15.75,74348.5,-2.01,-32.13,-33.09,0,*6A
1494824615.07,6424,15.75,74350.3,-1.99,-32.13,-33.09,0,*6F
1494824616.32,6425,15.75,74352.3,-1.99,-32.19,-33.03,0,*6E
1494824617.57,6426,15.75,74350.5,-1.99,-32.19,-32.91,0,*67
1494824618.8,6427,15.75,74348.3,-2.01,-32.19,-33.03,0,*6E
1494824620.02,6428,15.75,74352.0,-2.01,-32.19,-33.21,0,*61
1494824621.24,6429,15.75,74354.0,-2.01,-32.29,-33.03,0,*63
1494824622.45,6430,15.75,74358.0,-2.01,-32.29,-33.03,0,*6B
1494824623.68,6431,15.75,74356.3,-2.01,-32.13,-33.09,0,*69
1494824624.93,6432,15.75,74352.3,-1.99,-32.19,-33.03,0,*68
1494824626.15,6433,15.75,74354.0,-2.01,-32.19,-33.03,0,*6B
1494824627.38,6434,15.75,74358.3,-2.01,-32.19,-33.03,0,*6C
1494824628.6,6435,15.75,74352.0,-2.01,-32.13,-33.09,0,*6D
1494824629.85,6436,15.75,74352.0,-2.01,-32.19,-33.09,0,*64
1494824631.07,6437,15.75,74354.0,-2.01,-32.19,-33.03,0,*6F
1494824632.32,6438,15.75,74352.5,-2.01,-32.29,-33.09,0,*69
1494824633.56,6439,15.75,74352.3,-2.01,-32.29,-33.09,0,*68
1494824634.84,6440,15.75,74348.5,-1.99,-32.19,-33.09,0,*67
1494824636.09,6441,15.75,74354.5,-2.01,-32.19,-33.09,0,*64
1494824637.33,6442,15.75,74358.0,-2.01,-32.29,-33.09,0,*64
1494824638.55,6443,15.75,74354.8,-2.01,-32.29,-33.21,0,*6F
1494824639.77,6444,15.75,74352.5,-2.01,-32.29,-33.03,0,*68
1494824641.01,6445,15.75,74360.5,-2.01,-32.29,-33.09,0,*63
1494824642.23,6446,15.75,74360.8,-2.01,-32.29,-33.03,0,*6A
1494824643.45,6447,15.75,74356.8,-2.01,-32.29,-33.03,0,*6B
1494824644.7,6448,15.75,74360.8,-1.99,-32.19,-33.03,0,*65
1494824645.95,6449,15.75,74360.3,-1.99,-32.29,-33.03,0,*67
1494824647.2,6450,15.75,74354.5,-2.01,-32.19,-33.09,0,*64
1494824648.45,6451,15.75,74352.3,-2.01,-32.19,-33.09,0,*65
1494824649.66,6452,15.75,74356.5,-2.01,-32.29,-33.03,0,*6F
1494824650.91,6453,15.75,74358.0,-2.01,-32.19,-33.09,0,*67
1494824652.16,6454,15.75,74360.0,-2.01,-32.29,-33.09,0,*63
1494824653.38,6455,15.75,74352.8,-2.01,-32.29,-33.03,0,*68
1494824654.62,6456,15.75,74354.3,-2.01,-32.29,-33.09,0,*61
1494824655.87,6457,15.75,74352.8,-2.01,-32.19,-33.09,0,*63
1494824657.12,6458,15.75,74354.3,-2.01,-32.19,-33.09,0,*6C
1494824658.36,6459,15.75,74358.5,-2.01,-32.29,-33.09,0,*6E
1494824659.59,6460,15.75,74354.0,-2.01,-32.19,-33.03,0,*6D
1494824660.84,6461,15.75,74354.0,-2.01,-32.19,-33.09,0,*66
1494824662.08,6462,15.75,74350.8,-2.01,-32.29,-33.09,0,*66
1494824663.3,6463,15.75,74354.0,-2.01,-32.29,-33.03,0,*6D
1494824664.55,6464,15.75,74348.0,-2.01,-32.19,-33.09,0,*63
1494824665.8,6465,15.75,74350.0,-2.01,-32.19,-33.09,0,*62
1494824667.02,6466,15.75,74348.5,-2.01,-32.19,-33.03,0,*6B
1494824668.27,6467,15.75,74350.3,-2.01,-32.29,-33.09,0,*63
1494824669.48,6468,15.75,74350.8,-2.01,-32.35,-33.09,0,*61
1494824670.73,6469,15.75,74352.0,-2.01,-32.29,-33.09,0,*6D
1494824671.98,6470,15.75,74358.5,-2.01,-32.19,-33.09,0,*66
1494824673.22,6471,15.75,74354.5,-2.01,-32.29,-33.09,0,*64
1494824674.44,6472,15.75,74356.5,-2.01,-32.35,-33.09,0,*6A
1494824675.68,6473,15.75,74356.5,-2.01,-32.29,-33.09,0,*66
1494824676.9,6474,15.75,74364.0,-2.01,-32.29,-33.03,0,*6B
1494824678.12,6475,15.75,74356.8,-2.01,-32.19,-33.03,0,*69
1494824679.34,6476,15.75,74352.0,-2.01,-32.29,-33.03,0,*69
1494824680.53,6477,15.75,74356.8,-2.01,-32.35,-33.03,0,*65
1494824681.75,6478,15.75,74358.8,-2.01,-32.35,-33.09,0,*60
1494824683.0,6479,15.75,74358.8,-2.01,-32.45,-33.09,0,*66
1494824684.22,6480,15.75,74348.0,-2.01,-32.35,-33.09,0,*67
1494824685.44,6481,15.75,74344.0,-2.05,-32.39,-33.09,0,*6E
1494824686.64,6482,15.75,74350.3,-2.05,-32.39,-33.15,0,*60
1494824687.88,6483,15.75,74348.5,-2.05,-32.39,-33.27,0,*60
1494824689.1,6484,15.75,74354.8,-2.05,-32.35,-33.09,0,*67
1494824690.3,6485,15.75,74350.0,-2.05,-32.23,-33.15,0,*6C
1494824691.54,6486,15.75,74348.8,-2.07,-32.35,-33.09,0,*67
1494824692.77,6487,15.75,74348.3,-2.05,-32.35,-33.27,0,*68
1494824693.99,6488,15.75,74344.5,-2.05,-32.35,-33.09,0,*6B
1494824695.21,6489,15.75,74354.3,-2.01,-32.19,-33.03,0,*6A
1494824696.43,6490,15.75,74352.5,-2.01,-32.29,-33.03,0,*61
1494824697.66,6491,15.75,74354.0,-2.01,-32.19,-33.03,0,*63
1494824698.88,6492,15.75,74350.8,-2.01,-32.19,-33.03,0,*60
1494824700.1,6493,15.75,74348.8,-2.01,-32.35,-33.09,0,*65
1494824701.32,6494,15.75,74352.8,-2.05,-32.35,-33.09,0,*66
1494824702.57,6495,15.75,74354.3,-2.07,-32.35,-33.09,0,*65
1494824703.76,6496,15.75,74358.0,-2.05,-32.35,-33.15,0,*69
1494824704.96,6497,15.75,74348.8,-2.01,-32.35,-33.03,0,*6B
1494824706.15,6498,15.75,74346.5,-2.05,-32.35,-32.91,0,*6A
1494824707.38,6499,15.75,74340.0,-2.05,-32.35,-33.09,0,*6B
1494824708.6,6500,15.75,74356.3,-2.05,-32.23,-33.09,0,*6D
1494824709.82,6501,15.75,74352.5,-2.01,-32.19,-32.91,0,*61
1494824711.05,6502,15.75,74354.0,-2.01,-32.19,-33.03,0,*68
1494824712.27,6503,15.75,74354.5,-2.05,-32.35,-33.09,0,*69
1494824713.49,6504,15.75,74358.5,-2.05,-32.35,-33.09,0,*6E
1494824714.69,6505,15.75,74352.0,-2.05,-32.39,-33.15,0,*6E
1494824715.91,6506,15.75,74354.3,-2.01,-32.29,-33.03,0,*6F
1494824717.13,6507,15.75,74354.8,-2.05,-32.35,-33.09,0,*6D
1494824718.35,6508,15.75,74354.0,-2.01,-32.29,-32.91,0,*6B
1494824719.58,6509,15.75,74352.0,-2.01,-32.19,-33.03,0,*63
1494824720.8,6510,15.75,74348.5,-2.05,-32.35,-33.09,0,*6B
1494824721.99,6511,15.75,74354.8,-2.05,-32.35,-33.15,0,*67
1494824723.21,6512,15.75,74350.5,-2.05,-32.23,-32.97,0,*68
1494824724.44,6513,15.75,74352.8,-2.05,-32.35,-33.09,0,*68
1494824725.66,6514,15.75,74356.8,-2.05,-32.23,-33.09,0,*68
1494824726.88,6515,15.75,74354.0,-2.05,-32.23,-33.09,0,*69
1494824728.13,6516,15.75,74352.8,-2.05,-32.19,-32.97,0,*65
1494824729.36,6517,15.75,74352.3,-2.05,-32.23,-32.97,0,*6D
1494824730.57,6518,15.75,74352.5,-2.05,-32.35,-32.97,0,*65
1494824731.8,6519,15.75,74354.3,-2.05,-32.23,-33.09,0,*65
1494824733.02,6520,15.75,74350.8,-2.05,-32.35,-32.97,0,*6E
1494824734.23,6521,15.75,74348.3,-2.05,-32.35,-32.97,0,*6F
1494824735.46,6522,15.75,74354.0,-2.05,-32.35,-33.09,0,*6A
1494824736.68,6523,15.75,74354.0,-2.05,-32.23,-32.97,0,*6A
1494824737.9,6524,15.75,74352.0,-2.05,-32.23,-32.97,0,*6D
1494824739.12,6525,15.75,74350.3,-2.05,-32.35,-33.09,0,*6D
1494824740.37,6526,15.75,74362.5,-2.01,-32.19,-32.85,0,*61
1494824741.56,6527,15.75,74360.8,-2.01,-32.35,-32.91,0,*6B
1494824742.79,6528,15.75,74358.8,-2.01,-32.19,-33.03,0,*60
1494824744.01,6529,15.75,74358.0,-2.01,-32.29,-33.03,0,*62
1494824745.23,6530,15.75,74358.3,-2.01,-32.19,-33.03,0,*69
1494824746.45,6531,15.75,74350.0,-2.01,-32.29,-33.03,0,*6B
1494824747.67,6532,15.75,74348.8,-2.05,-32.23,-32.97,0,*6A
1494824748.9,6533,15.75,74344.8,-2.05,-32.39,-33.09,0,*66
1494824750.14,6534,15.75,74350.3,-2.01,-32.45,-33.09,0,*6E
1494824751.34,6535,15.75,74350.5,-2.01,-32.35,-33.03,0,*62
1494824752.54,6536,15.75,74350.5,-2.05,-32.39,-33.15,0,*6E
1494824753.78,6537,15.75,74358.8,-2.01,-32.29,-33.09,0,*67
1494824755.01,6538,15.75,74358.5,-2.05,-32.23,-33.09,0,*66
1494824756.23,6539,15.75,74358.3,-2.05,-32.23,-33.09,0,*67
1494824757.43,6540,15.75,74360.5,-2.05,-32.23,-32.91,0,*69
1494824758.63,6541,15.75,74358.3,-2.05,-32.23,-32.91,0,*68
1494824759.86,6542,15.75,74348.5,-2.05,-32.19,-32.91,0,*62
1494824761.06,6543,15.75,74348.8,-2.05,-32.51,-33.15,0,*62
1494824762.29,6544,15.75,74354.3,-2.05,-32.39,-33.09,0,*66
1494824763.52,6545,15.75,74356.3,-2.05,-32.39,-33.09,0,*67
1494824764.71,6546,15.75,74352.8,-2.05,-32.35,-33.15,0,*65
1494824765.94,6547,15.75,74358.3,-2.01,-32.45,-33.03,0,*60
1494824767.13,6548,15.75,74356.8,-2.01,-32.35,-33.03,0,*68
1494824768.35,6549,15.75,74354.8,-2.01,-32.29,-32.91,0,*6E
1494824769.59,6550,15.75,74356.0,-2.01,-32.29,-32.85,0,*63
1494824770.85,6551,15.75,74352.0,-2.01,-32.19,-32.85,0,*61
1494824772.07,6552,15.75,74348.5,-2.01,-32.19,-32.91,0,*67
1494824773.29,6553,15.75,74348.8,-2.05,-32.35,-33.09,0,*6C
1494824774.54,6554,15.75,74354.3,-2.01,-32.29,-32.85,0,*67
1494824775.79,6555,15.75,74354.5,-2.01,-32.19,-32.85,0,*65
1494824777.02,6556,15.75,74348.5,-2.01,-32.19,-33.03,0,*69
1494824778.24,6557,15.75,74350.5,-2.01,-32.29,-33.03,0,*6B
1494824779.43,6558,15.75,74352.5,-2.01,-32.35,-33.03,0,*69
1494824780.65,6559,15.75,74354.3,-2.01,-32.29,-33.03,0,*65
1494824781.86,6560,15.75,74350.8,-1.99,-32.35,-33.03,0,*60
1494824783.09,6561,15.75,74356.5,-2.05,-32.39,-33.09,0,*61
1494824784.31,6562,15.75,74354.0,-2.01,-32.29,-32.91,0,*67
1494824785.53,6563,15.75,74356.0,-2.01,-32.29,-32.91,0,*66
1494824786.75,6564,15.75,74352.5,-2.01,-32.29,-32.91,0,*61
1494824787.97,6565,15.75,74352.5,-2.01,-32.29,-32.91,0,*60
1494824789.19,6566,15.75,74354.5,-2.01,-32.29,-32.91,0,*63
1494824790.41,6567,15.75,74354.3,-2.05,-32.35,-33.09,0,*6B
1494824791.63,6568,15.75,74354.8,-2.01,-32.29,-33.03,0,*67
1494824792.85,6569,15.75,74354.8,-2.01,-32.29,-32.91,0,*6C
1494824794.05,6570,15.75,74358.0,-2.01,-32.35,-32.91,0,*69
1494824795.27,6571,15.75,74354.8,-2.01,-32.29,-32.91,0,*65
1494824796.49,6572,15.75,74352.0,-2.05,-32.39,-32.97,0,*65
1494824797.71,6573,15.75,74354.3,-2.05,-32.35,-33.09,0,*6E
1494824798.93,6574,15.75,74352.3,-2.05,-32.35,-33.09,0,*69
1494824800.15,6575,15.75,74352.0,-2.01,-32.29,-33.03,0,*6B
1494824801.37,6576,15.75,74354.5,-2.01,-32.29,-32.91,0,*62
1494824802.57,6577,15.75,74356.8,-2.01,-32.35,-32.91,0,*6E
1494824803.79,6578,15.75,74354.0,-2.01,-32.29,-32.91,0,*6C
1494824805.01,6579,15.75,74352.5,-2.01,-32.35,-32.85,0,*65
1494824806.26,6580,15.75,74356.5,-2.01,-32.19,-32.85,0,*6D
1494824807.49,6581,15.75,74354.0,-2.01,-32.19,-32.91,0,*69
1494824808.71,6582,15.75,74354.8,-2.01,-32.19,-32.91,0,*6A
1494824809.96,6583,15.75,74356.5,-1.99,-32.29,-32.91,0,*6A
1494824811.18,6584,15.75,74354.0,-2.05,-32.35,-32.97,0,*60
1494824812.38,6585,15.75,74354.5,-2.05,-32.23,-32.91,0,*60
1494824813.58,6586,15.75,74352.8,-2.05,-32.23,-32.91,0,*63
1494824814.8,6587,15.75,74354.3,-2.01,-32.29,-32.91,0,*6C
1494824816.05,6588,15.75,74352.3,-2.01,-32.29,-32.85,0,*66
1494824817.29,6589,15.75,74354.0,-1.99,-32.29,-32.91,0,*60
1494824818.51,6590,15.75,74352.0,-1.99,-32.35,-32.91,0,*65
1494824819.73,6591,15.75,74356.5,-2.01,-32.35,-33.09,0,*66
1494824820.92,6592,15.75,74356.0,-2.01,-32.35,-33.03,0,*6F
1494824822.14,6593,15.75,74358.3,-2.01,-32.29,-32.91,0,*69
1494824823.36,6594,15.75,74350.3,-2.01,-32.29,-32.91,0,*6E
1494824824.61,6595,15.75,74352.5,-2.01,-32.29,-33.09,0,*6F
1494824825.82,6596,15.75,74354.3,-2.01,-32.35,-33.09,0,*61
1494824827.02,6597,15.75,74350.5,-2.01,-32.35,-33.03,0,*6A
1494824828.24,6598,15.75,74352.3,-2.01,-32.45,-33.03,0,*62
1494824829.46,6599,15.75,74350.8,-2.01,-32.35,-33.09,0,*6E
1494824830.68,6600,15.75,74352.0,-2.01,-32.45,-33.03,0,*60
1494824831.88,6601,15.75,74358.5,-2.05,-32.51,-33.15,0,*67
1494824833.07,6602,15.75,74356.5,-2.01,-32.35,-33.03,0,*65
1494824834.27,6603,15.75,74352.5,-2.01,-32.35,-32.91,0,*6E
1494824835.46,6604,15.75,74350.8,-2.01,-32.35,-32.91,0,*69
1494824836.65,6605,15.75,74354.8,-2.01,-32.35,-33.03,0,*62
1494824837.87,6606,15.75,74356.5,-2.01,-32.45,-33.03,0,*66
1494824839.09,6607,15.75,74356.0,-2.01,-32.29,-33.03,0,*6D
1494824840.32,6608,15.75,74354.8,-2.01,-32.19,-32.91,0,*6B
1494824841.54,6609,15.75,74358.0,-2.01,-32.19,-32.91,0,*6A
1494824842.8,6610,15.75,74356.5,-2.01,-32.19,-32.85,0,*67
1494824844.0,6611,15.75,74356.3,-2.01,-32.13,-32.91,0,*69
1494824845.2,6612,15.75,74354.5,-2.01,-32.13,-32.69,0,*6D
1494824846.45,6613,15.75,74358.8,-2.01,-32.19,-32.85,0,*64
1494824847.68,6614,15.75,74358.3,-2.01,-32.19,-32.69,0,*61
1494824848.93,6615,15.75,74358.0,-2.01,-32.19,-32.75,0,*6D
1494824850.18,6616,15.75,74360.0,-2.01,-32.29,-32.85,0,*62
1494824851.43,6617,15.75,74362.0,-2.01,-32.19,-32.85,0,*60
1494824852.68,6618,15.75,74358.3,-2.01,-32.29,-32.85,0,*6C
1494824853.96,6619,15.75,74354.8,-1.99,-32.19,-32.75,0,*63
1494824855.21,6620,15.75,74352.3,-1.99,-32.19,-32.91,0,*63
1494824856.46,6621,15.75,74356.8,-2.01,-32.29,-32.85,0,*66
1494824857.68,6622,15.75,74356.5,-2.01,-32.29,-32.91,0,*60
1494824858.87,6623,15.75,74356.0,-2.01,-32.35,-33.03,0,*66
1494824860.07,6624,15.75,74358.3,-2.01,-32.35,-32.91,0,*6B
1494824861.31,6625,15.75,74354.8,-2.01,-32.29,-32.85,0,*62
1494824862.53,6626,15.75,74352.8,-2.01,-32.29,-32.91,0,*64
1494824863.75,6627,15.75,74354.3,-2.01,-32.29,-32.91,0,*65
1494824864.95,6628,15.75,74356.8,-2.01,-32.35,-32.91,0,*67
1494824866.17,6629,15.75,74362.0,-2.01,-32.45,-32.91,0,*61
1494824867.39,6630,15.75,74354.5,-2.01,-32.45,-33.03,0,*63
1494824868.61,6631,15.75,74358.5,-2.01,-32.35,-33.09,0,*6F
1494824869.81,6632,15.75,74358.5,-2.01,-32.35,-32.91,0,*6C
1494824871.0,6633,15.75,74354.8,-2.01,-32.35,-32.91,0,*6D
1494824872.19,6634,15.75,74358.8,-2.01,-32.35,-32.91,0,*6A
1494824873.39,6635,15.75,74358.8,-2.01,-32.35,-32.91,0,*6B
1494824874.61,6636,15.75,74354.5,-2.01,-32.29,-33.03,0,*6F
1494824875.83,6637,15.75,74354.8,-2.01,-32.45,-32.91,0,*6E
1494824877.05,6638,15.75,74356.3,-2.01,-32.45,-32.91,0,*61
1494824878.25,6639,15.75,74358.3,-2.01,-32.35,-33.03,0,*6D
1494824879.46,6640,15.75,74358.5,-2.01,-32.35,-33.09,0,*69
1494824880.71,6641,15.75,74356.8,-2.01,-32.45,-33.09,0,*6F
1494824881.96,6642,15.75,74352.5,-1.99,-32.45,-33.03,0,*64
1494824883.21,6643,15.75,74352.5,-2.01,-32.45,-33.09,0,*6D
1494824884.43,6644,15.75,74358.8,-2.05,-32.51,-33.09,0,*6B
1494824885.66,6645,15.75,74362.8,-2.05,-32.51,-33.09,0,*6A
1494824886.88,6646,15.75,74360.3,-2.01,-32.29,-33.03,0,*68
1494824888.07,6647,15.75,74358.3,-2.01,-32.35,-33.03,0,*64
1494824889.26,6648,15.75,74356.5,-2.01,-32.35,-33.03,0,*6B
1494824890.49,6649,15.75,74356.8,-2.05,-32.39,-33.09,0,*68
1494824891.69,6650,15.75,74356.5,-2.01,-32.35,-32.91,0,*68
1494824892.91,6651,15.75,74360.5,-2.05,-32.39,-32.97,0,*67
1494824894.1,6652,15.75,74358.8,-2.01,-32.35,-33.03,0,*60
1494824895.29,6653,15.75,74360.8,-2.01,-32.35,-33.03,0,*61
1494824896.52,6654,15.75,74362.0,-2.05,-32.39,-33.09,0,*64
1494824897.72,6655,15.75,74360.3,-2.05,-32.35,-33.15,0,*64
1494824898.94,6656,15.75,74360.5,-2.05,-32.35,-33.09,0,*6A
1494824900.14,6657,15.75,74360.0,-2.05,-32.51,-33.15,0,*64